GW6892 Weather Reports


Display with metric or nautical units.
time (UTC)temp
F
wind
direction
speed
MPH
gust
MPH
rain 1hr
in
rain 24hr
in
rain mn
in
humidity
%
barometer
mb
20260507193014 58 122 2.0 10.0 0.00 0.47 0.00 36 1005.1
20260507191520 59 345 1.0 5.0 0.00 0.49 0.00 34 1005.2
20260507190016 61 340 2.0 7.0 0.00 0.51 0.00 34 1005.2
20260507184514 58 15 1.0 3.0 0.00 0.52 0.00 41 1005.2
20260507183015 56 62 1.0 5.0 0.00 0.54 0.00 34 1005.4
20260507181513 59 71 1.0 6.0 0.00 0.55 0.00 35 1005.5
20260507180033 60 262 2.0 6.0 0.00 0.57 0.00 36 1005.5
20260507174520 60 293 1.0 7.0 0.00 0.58 0.00 37 1005.6
20260507173021 60 285 1.0 6.0 0.00 0.63 0.00 36 1005.5
20260507171516 59 281 3.0 12.0 0.00 0.71 0.00 39 1005.7
20260507170031 60 12 7.0 15.0 0.00 0.78 0.00 36 1006.0
20260507164516 59 222 3.0 10.0 0.00 0.78 0.00 35 1005.8
20260507163016 58 140 3.0 11.0 0.00 0.78 0.00 43 1006.4
20260507161515 57 307 1.0 5.0 0.00 0.78 0.00 51 1006.5
20260507160018 54 333 1.0 5.0 0.00 0.78 0.00 57 1006.9
20260507154518 57 273 3.0 5.0 0.00 0.78 0.00 59 1006.9
20260507153020 56 144 3.0 8.0 0.00 0.78 0.00 57 1006.8
20260507151520 56 261 4.0 8.0 0.00 0.78 0.00 57 1007.0
20260507150018 55 243 2.0 8.0 0.00 0.78 0.00 66 1007.2
20260507144520 53 329 1.0 8.0 0.00 0.78 0.00 64 1007.1
20260507143022 53 240 1.0 6.0 0.00 0.78 0.00 66 1007.1
20260507141509 54 259 2.0 7.0 0.00 0.78 0.00 71 1007.0
20260507140016 54 283 1.0 6.0 0.00 0.78 0.00 67 1006.9
20260507134514 54 56 2.0 5.0 0.00 0.78 0.00 65 1006.9
20260507133005 53 258 1.0 7.0 0.00 0.78 0.00 73 1007.0
20260507131509 53 282 1.0 4.0 0.00 0.78 0.00 71 1007.1
20260507130013 51 154 1.0 4.0 0.00 0.78 0.00 76 1007.2
20260507124519 49 215 1.0 2.0 0.00 0.78 0.00 81 1007.0
20260507123023 47 30 0.0 2.0 0.00 0.78 0.00 89 1007.0
20260507121516 45 165 0.0 2.0 0.00 0.78 0.00 90 1007.1
20260507120008 44 204 0.0 2.0 0.00 0.78 0.00 94 1007.4
20260507114509 43 165 0.0 1.0 0.00 0.78 0.00 95 1007.3
20260507113007 42 197 1.0 1.0 0.00 0.78 0.00 96 1007.3
20260507111524 41 153 0.0 1.0 0.00 0.78 0.00 95 1007.1
20260507110025 41 153 0.0 1.0 0.00 0.78 0.00 95 1007.3
20260507104514 41 154 0.0 0.0 0.00 0.78 0.00 96 1007.0
20260507103020 40 153 0.0 1.0 0.00 0.78 0.00 96 1007.0
20260507101520 40 153 0.0 1.0 0.00 0.78 0.00 96 1007.2
20260507100016 41 153 0.0 0.0 0.00 0.78 0.00 96 1007.2
20260507094531 41 153 0.0 1.0 0.00 0.78 0.00 96 1007.3
20260507093017 41 154 0.0 2.0 0.00 0.78 0.00 95 1007.2
20260507091533 42 155 0.0 0.0 0.00 0.78 0.00 95 1007.0
20260507090029 42 155 0.0 0.0 0.00 0.78 0.00 95 1007.1
20260507084536 43 155 0.0 0.0 0.00 0.78 0.00 95 1006.6
20260507083016 42 155 0.0 0.0 0.00 0.78 0.00 95 1006.9
20260507081518 43 155 0.0 0.0 0.00 0.78 0.00 95 1006.9
20260507080024 43 155 0.0 0.0 0.00 0.78 0.00 94 1006.6
20260507074526 44 155 0.0 0.0 0.00 0.78 0.00 94 1006.4
20260507073024 44 155 0.0 0.0 0.00 0.78 0.00 94 1006.1
20260507071524 44 155 0.0 1.0 0.00 0.78 0.00 94 1006.0
20260507070018 44 155 0.0 1.0 0.00 0.78 0.00 94 1006.4
20260507064524 44 155 0.0 2.0 0.00 0.78 0.00 93 1006.0
20260507063028 44 152 1.0 2.0 0.00 0.78 0.00 93 1006.0
20260507061528 45 99 0.0 2.0 0.00 0.78 0.00 94 1005.9
20260507060025 45 180 0.0 3.0 0.00 0.78 0.00 94 1005.7
20260507054520 45 286 1.0 4.0 0.00 0.78 0.00 94 1005.7
20260507053022 45 227 0.0 3.0 0.00 0.78 0.00 94 1005.7
20260507051528 46 172 0.0 3.0 0.00 0.78 0.00 94 1005.5
20260507050040 46 276 1.0 4.0 0.00 0.78 0.00 93 1005.4
20260507044527 46 221 0.0 2.0 0.00 0.78 0.00 94 1005.7
20260507043022 47 156 0.0 2.0 0.01 0.78 0.00 94 1005.2
20260507041524 47 167 0.0 2.0 0.01 0.78 0.00 93 1005.5
20260507040021 48 239 1.0 3.0 0.01 0.78 0.00 94 1005.7
20260507034526 48 258 1.0 2.0 0.02 0.78 0.78 94 1005.2
20260507033026 49 232 0.0 2.0 0.01 0.77 0.77 94 1005.1
20260507031527 49 229 1.0 5.0 0.01 0.77 0.77 94 1005.2
20260507030026 50 240 1.0 5.0 0.02 0.77 0.77 93 1005.1
20260507024530 51 221 1.0 2.0 0.01 0.76 0.76 93 1004.9
20260507023017 52 201 2.0 3.0 0.01 0.76 0.76 94 1004.9
20260507021529 53 225 1.0 2.0 0.01 0.76 0.76 93 1005.0
20260507020018 54 243 0.0 2.0 0.00 0.75 0.75 94 1004.7
20260507014510 54 245 0.0 2.0 0.01 0.75 0.75 94 1004.6
20260507013011 55 228 0.0 2.0 0.01 0.75 0.75 94 1004.5
20260507011514 55 141 0.0 5.0 0.01 0.75 0.75 94 1004.4
20260507010031 56 214 2.0 4.0 0.01 0.75 0.75 94 1004.4
20260507004524 57 85 1.0 1.0 0.01 0.74 0.74 95 1004.3
20260507003011 57 188 0.0 2.0 0.02 0.74 0.74 95 1004.0
20260507001516 57 212 1.0 2.0 0.02 0.74 0.74 95 1003.9
20260507000022 58 155 1.0 2.0 0.03 0.74 0.74 95 1003.7
20260506234512 58 262 0.0 2.0 0.02 0.73 0.73 95 1003.7
20260506233026 58 231 1.0 7.0 0.02 0.72 0.72 95 1003.4
20260506231518 58 347 1.0 6.0 0.03 0.72 0.72 95 1003.5
20260506230019 59 245 1.0 5.0 0.03 0.71 0.71 94 1003.4
20260506224522 59 262 3.0 10.0 0.06 0.71 0.71 94 1003.2
20260506223020 59 230 2.0 8.0 0.10 0.71 0.70 94 1003.4
20260506221516 59 238 2.0 8.0 0.16 0.70 0.69 94 1003.6
20260506220018 59 137 1.0 11.0 0.22 0.72 0.68 94 1003.6
20260506214522 59 105 1.0 4.0 0.22 0.70 0.65 94 1003.7
20260506213023 59 352 1.0 6.0 0.22 0.65 0.60 93 1003.9
20260506211538 59 281 2.0 6.0 0.15 0.58 0.52 94 1003.9
20260506210033 59 292 2.0 9.0 0.09 0.51 0.46 93 1004.1
20260506204522 59 262 0.0 3.0 0.09 0.48 0.43 93 1004.3
20260506203017 60 103 0.0 3.0 0.07 0.43 0.38 93 1004.4
20260506201527 59 285 3.0 6.0 0.09 0.43 0.38 92 1004.8
20260506200031 59 228 3.0 6.0 0.10 0.42 0.37 93 1004.7
20260506194524 59 29 1.0 9.0 0.09 0.39 0.34 92 1004.9